EW8494 Weather Reports


Display with metric or nautical units.
time (UTC)temp
F
wind
direction
speed
MPH
gust
MPH
rain 1hr
in
rain 24hr
in
rain mn
in
humidity
%
barometer
mb
20260506005131 85 0 3.0 6.0 0.00 0.00 0.00 17
20260506004150 85 23 2.0 6.0 0.00 0.00 0.00 16
20260506003130 85 45 3.0 8.0 0.00 0.00 0.00 17
20260506002149 85 23 1.0 3.0 0.00 0.00 0.00 16
20260506001149 85 23 2.0 6.0 0.00 0.00 0.00 18
20260506000128 85 0 4.0 8.0 0.00 0.00 0.00 16
20260505235127 85 0 2.0 5.0 0.00 0.00 0.00 17
20260505234128 84 0 5.0 10.0 0.00 0.00 0.00 19
20260505233146 84 0 3.0 9.0 0.00 0.00 0.00 20
20260505232128 85 0 3.0 6.0 0.00 0.00 0.00 21
20260505231126 85 23 3.0 8.0 0.00 0.00 0.00 18
20260505230127 84 0.0 2.0 0.00 0.00 0.00 17
20260505225125 84 0 3.0 7.0 0.00 0.00 0.00 25
20260505224126 84 45 2.0 4.0 0.00 0.00 0.00 23
20260505223125 83 23 2.0 4.0 0.00 0.00 0.00 26
20260505222126 83 0 2.0 5.0 0.00 0.00 0.00 23
20260505221125 83 0 1.0 5.0 0.00 0.00 0.00 25
20260505220125 82 0 4.0 9.0 0.00 0.00 0.00 26
20260505215126 82 23 3.0 9.0 0.00 0.00 0.00 30
20260505214124 82 45 4.0 11.0 0.00 0.00 0.00 29
20260505213147 82 0 5.0 11.0 0.00 0.00 0.00 25
20260505212124 81 45 2.0 4.0 0.00 0.00 0.00 27
20260505211123 81 0 4.0 9.0 0.00 0.00 0.00 30
20260505210122 81 0 7.0 12.0 0.00 0.00 0.00 33
20260505205124 81 23 3.0 6.0 0.00 0.00 0.00 33
20260505204124 80 23 3.0 11.0 0.00 0.00 0.00 29
20260505203122 80 0 4.0 10.0 0.00 0.00 0.00 30
20260505202121 79 23 4.0 8.0 0.00 0.00 0.00 30
20260505201124 79 45 4.0 12.0 0.00 0.00 0.00 34
20260505200143 78 0 4.0 9.0 0.00 0.00 0.00 31
20260505195122 78 23 4.0 10.0 0.00 0.00 0.00 32
20260505194121 77 23 4.0 13.0 0.00 0.00 0.00 33
20260505193120 77 23 3.0 8.0 0.00 0.00 0.00 35
20260505192123 77 23 3.0 5.0 0.00 0.00 0.00 37
20260505191121 76 23 2.0 4.0 0.00 0.00 0.00 35
20260505190122 76 0 3.0 6.0 0.00 0.00 0.00 39
20260505185121 75 23 3.0 8.0 0.00 0.00 0.00 39
20260505184122 75 338 4.0 8.0 0.00 0.00 0.00 39
20260505183120 74 0 2.0 5.0 0.00 0.00 0.00 40
20260505182120 73 0 3.0 6.0 0.00 0.00 0.00 40
20260505181121 72 0 1.0 6.0 0.00 0.00 0.00 43
20260505180119 72 23 3.0 6.0 0.00 0.00 0.00 41
20260505175119 72 23 3.0 8.0 0.00 0.00 0.00 42
20260505174120 71 0 5.0 10.0 0.00 0.00 0.00 46
20260505173120 70 23 3.0 8.0 0.00 0.00 0.00 42
20260505172118 69 23 3.0 7.0 0.00 0.00 0.00 47
20260505171138 68 0 4.0 9.0 0.00 0.00 0.00 47
20260505170117 68 23 4.0 6.0 0.00 0.00 0.00 48
20260505165118 67 23 4.0 11.0 0.00 0.00 0.00 48
20260505164156 66 23 3.0 6.0 0.00 0.00 0.00 50
20260505163117 66 0 5.0 10.0 0.00 0.00 0.00 49
20260505162117 65 23 4.0 8.0 0.00 0.00 0.00 50
20260505161117 65 45 2.0 5.0 0.00 0.00 0.00 51
20260505160116 64 0 3.0 6.0 0.00 0.00 0.00 50
20260505153137 63 0 2.0 7.0 0.00 0.00 0.00 53
20260505152133 62 23 2.0 5.0 0.00 0.00 0.00 52
20260505151116 62 45 1.0 4.0 0.00 0.00 0.00 53
20260505150115 61 45 1.0 4.0 0.00 0.00 0.00 54
20260505140113 57 45 2.0 4.0 0.00 0.00 0.00 56
20260505130112 56 23 3.0 5.0 0.00 0.00 0.00 57
20260505124109 56 23 3.0 5.0 0.00 0.00 0.00 58
20260505123131 56 23 3.0 5.0 0.00 0.00 0.00 58
20260505122111 55 23 4.0 10.0 0.00 0.00 0.00 58
20260505121111 55 23 4.0 7.0 0.00 0.00 0.00 60
20260505120110 55 23 4.0 9.0 0.00 0.00 0.00 61
20260505115109 55 0 4.0 8.0 0.00 0.00 0.00 61
20260505114111 57 23 3.0 7.0 0.00 0.00 0.00 59
20260505113110 57 23 3.0 5.0 0.00 0.00 0.00 57
20260505112109 57 23 3.0 7.0 0.00 0.00 0.00 58
20260505111109 58 23 3.0 4.0 0.00 0.00 0.00 58
20260505110109 59 45 1.0 2.0 0.00 0.00 0.00 55
20260505102107 58 0 3.0 5.0 0.00 0.00 0.00 61
20260505101106 60 23 2.0 5.0 0.00 0.00 0.00 58
20260505100107 60 23 1.0 3.0 0.00 0.00 0.00 58
20260505095106 60 0.0 0.0 0.00 0.00 0.00 58
20260505094106 61 0.0 2.0 0.00 0.00 0.00 56
20260505093105 61 0.0 0.0 0.00 0.00 0.00 55
20260505092105 61 0.0 0.0 0.00 0.00 0.00 58
20260505091146 61 0.0 0.0 0.00 0.00 0.00 57
20260505090106 62 0.0 0.0 0.00 0.00 0.00 56
20260505085124 62 0.0 0.0 0.00 0.00 0.00 57
20260505084104 63 0.0 0.0 0.00 0.00 0.00 57
20260505083103 64 0.0 0.0 0.00 0.00 0.00 55
20260505082103 64 0.0 0.0 0.00 0.00 0.00 51
20260505081104 65 0.0 0.0 0.00 0.00 0.00 52
20260505080103 65 0.0 0.0 0.00 0.00 0.00 51
20260505075103 65 0.0 3.0 0.00 0.00 0.00 48
20260505074123 65 0.0 0.0 0.00 0.00 0.00 51
20260505073101 66 0.0 0.0 0.00 0.00 0.00 49
20260505072102 67 0.0 0.0 0.00 0.00 0.00 46
20260505071103 67 0.0 0.0 0.00 0.00 0.00 46
20260505065100 66 45 2.0 5.0 0.00 0.00 0.00 48
20260505064101 64 23 3.0 4.0 0.00 0.00 0.00 53
20260505063121 64 0 4.0 6.0 0.00 0.00 0.00 48
20260505062140 65 23 2.0 4.0 0.00 0.00 0.00 46
20260505061101 66 23 2.0 4.0 0.00 0.00 0.00 45
20260505060100 67 0 3.0 5.0 0.00 0.00 0.00 43
20260505055059 66 45 3.0 5.0 0.00 0.00 0.00 49
20260505054059 66 45 2.0 3.0 0.00 0.00 0.00 48
20260505053059 68 45 2.0 8.0 0.00 0.00 0.00 43
20260505052100 66 338 4.0 6.0 0.00 0.00 0.00 40
20260505051058 67 23 2.0 3.0 0.00 0.00 0.00 44
20260505041057 71 0 2.0 3.0 0.00 0.00 0.00 41
20260505040056 71 0 3.0 4.0 0.00 0.00 0.00 37
20260505035057 72 0 3.0 4.0 0.00 0.00 0.00 35
20260505034056 72 0 3.0 5.0 0.00 0.00 0.00 33
20260505033057 72 0 2.0 3.0 0.00 0.00 0.00 34
20260505032055 73 0 3.0 4.0 0.00 0.00 0.00 35
20260505031056 73 23 3.0 4.0 0.00 0.00 0.00 36
20260505030056 73 23 2.0 3.0 0.00 0.00 0.00 36
20260505025055 75 23 2.0 3.0 0.00 0.00 0.00 36
20260505024053 78 23 2.0 3.0 0.00 0.00 0.00 33
20260505023054 81 45 1.0 3.0 0.00 0.00 0.00 29
20260505022053 83 0.0 0.0 0.00 0.00 0.00 25
20260505021056 85 0.0 0.0 0.00 0.00 0.00 23
20260505020053 86 45 1.0 2.0 0.00 0.00 0.00 20
20260505015052 87 23 2.0 3.0 0.00 0.00 0.00 17
20260505014053 87 23 1.0 3.0 0.00 0.00 0.00 17
20260505013055 87 23 2.0 5.0 0.00 0.00 0.00 15
20260505012052 88 23 3.0 5.0 0.00 0.00 0.00 13
20260505011112 88 23 3.0 5.0 0.00 0.00 0.00 12
20260505010052 88 23 4.0 7.0 0.00 0.00 0.00 10